TimeCST,TemperatureF,Dew PointF,Humidity,Sea Level PressureIn,VisibilityMPH,Wind Direction,Wind SpeedMPH,Gust SpeedMPH,PrecipitationIn,Events,Conditions,WindDirDegrees,DateUTC
12:53 AM,44.1,21.9,42,30.14,10.0,South,11.5,-,N/A,,Clear,190,2012-11-15 06:53:00
1:53 AM,44.1,21.9,42,30.12,10.0,South,15.0,-,N/A,,Clear,180,2012-11-15 07:53:00
2:53 AM,43.0,23.0,45,30.12,10.0,South,18.4,-,N/A,,Clear,180,2012-11-15 08:53:00
3:53 AM,41.0,23.0,49,30.12,10.0,South,15.0,-,N/A,,Clear,170,2012-11-15 09:53:00
4:53 AM,41.0,24.1,51,30.12,10.0,South,17.3,-,N/A,,Clear,170,2012-11-15 10:53:00
5:53 AM,39.9,24.1,53,30.13,10.0,South,16.1,-,N/A,,Clear,170,2012-11-15 11:53:00
6:53 AM,39.9,25.0,55,30.13,10.0,South,15.0,-,N/A,,Clear,180,2012-11-15 12:53:00
7:53 AM,39.9,27.0,60,30.16,10.0,South,12.7,-,N/A,,Clear,190,2012-11-15 13:53:00
8:53 AM,44.1,28.0,53,30.17,10.0,South,16.1,-,N/A,,Clear,190,2012-11-15 14:53:00
9:53 AM,48.0,27.0,44,30.19,10.0,SW,6.9,-,N/A,,Clear,230,2012-11-15 15:53:00
10:53 AM,50.0,26.1,39,30.20,10.0,Calm,Calm,-,N/A,,Clear,0,2012-11-15 16:53:00
11:53 AM,53.1,23.0,31,30.21,10.0,Variable,4.6,-,N/A,,Clear,0,2012-11-15 17:53:00
12:53 PM,55.9,23.0,28,30.19,10.0,Variable,3.5,-,N/A,,Clear,0,2012-11-15 18:53:00
1:53 PM,57.9,24.1,27,30.18,10.0,Variable,3.5,-,N/A,,Clear,0,2012-11-15 19:53:00
2:53 PM,59.0,24.1,26,30.18,10.0,NW,4.6,-,N/A,,Clear,310,2012-11-15 20:53:00
3:53 PM,61.0,26.1,26,30.19,10.0,NNE,10.4,-,N/A,,Clear,20,2012-11-15 21:53:00
4:53 PM,57.0,28.9,34,30.22,10.0,North,11.5,-,N/A,,Clear,10,2012-11-15 22:53:00
5:53 PM,51.1,30.0,44,30.26,10.0,NNE,8.1,-,N/A,,Clear,20,2012-11-15 23:53:00
6:53 PM,45.0,30.9,58,30.30,10.0,NE,6.9,-,N/A,,Clear,40,2012-11-16 00:53:00
7:53 PM,43.0,32.0,65,30.32,10.0,ENE,3.5,-,N/A,,Clear,60,2012-11-16 01:53:00
8:53 PM,39.0,30.9,73,30.34,10.0,Calm,Calm,-,N/A,,Clear,0,2012-11-16 02:53:00
9:53 PM,39.0,32.0,76,30.35,10.0,Calm,Calm,-,N/A,,Clear,0,2012-11-16 03:53:00
10:53 PM,36.0,30.9,82,30.37,10.0,Calm,Calm,-,N/A,,Clear,0,2012-11-16 04:53:00
11:53 PM,35.1,30.9,85,30.37,10.0,Calm,Calm,-,N/A,,Clear,0,2012-11-16 05:53:00